Location: DARK SKY Beskydy - Park tmavé oblohy, www.darkskybeskydy.cz
(49.4926°N, 18.5016°E)
Time: 11:09:19
(UTC+02:00)

Vanguard 1 - Pass Details

Date: 22 February 2024
Orbit: 653 x 3825 km, 34.2° (Epoch: 12 April)

Event Time Altitude Azimuth Distance (km) Brightness Sun altitude
Rises 19:28:20 0° 218° (SW) 5,608 14.3 -22.1°
Reaches altitude 10° 19:31:52 10° 210° (SSW) 4,992 13.9 -22.6°
Maximum altitude 19:45:41 38° 149° (SSE) 4,309 12.9 -24.8°
Enters shadow 19:52:19 32° 119° (ESE) 4,960 13.0 -25.9°
Drops below altitude 10° 20:05:01 10° 92° (E) 6,926 - -27.8°
Sets 20:11:04 0° 86° (E) 7,942 - -28.8°
